Dewpoint
67 67 66 66 66 67 66 66 66 66 66 67 67 66 66 65 63 60 58 55 55 55
67 66 66 67 67 67 66 66 66 66 66 66 66 66 66 63 61 58 56 56 55 54
66 66 66 67 66 66 66 66 65 65 65 65 65 64 63 61 59 57 56 55 54 54
65 65 65 65 65 65 65 65 65 64 64 64 63 62 60 59 57 55 54 53 52 52
65 65 64 64 64 65 64 65 64 64 63 62 61 59 58 56 56 55 54 54 53 51
63 64 64 64 64 64 64 64 64 62 61 61 59 58 58 57 55 55 55 53 52 52
60 62 63 64 64 64 64 63 63 62 62 60 59 58 57 56 55 55 53 52 52 52
60 60 60 61 62 62 63 62 62 61 60 60 58 57 57 55 55 53 52 51 52 52
55 59 60 60 60 60 60 61 61 60 59 59 57 49 47 53 54 52 52 51 50 48
49 50 53 56 57 57 57 58 58 58 58 57 57 47 46 45 54 52 50 48 47 44
46 46 48 49 50 52 54 54 55 55 54 54 51 43 42 41 45 43 43 43 43 42
44 44 45 46 48 49 49 50 51 51 50 49 44 39 39 43 42 41 41 40 41 41
43 43 43 45 46 46 47 47 48 47 48 43 43 38 39 41 41 40 39 39 39 37
42 42 43 44 44 45 46 46 46 45 45 44 42 40 39 39 41 40 38 36 36 36
Lifted_Index
-5 -5 -5 -4 -4 -4 -4 -4 -4 -4 -4 -4 -4 -4 -3 -3 -3 -3 -3 -2 -2 -1
-5 -5 -5 -5 -4 -4 -4 -4 -4 -4 -4 -4 -4 -4 -3 -3 -3 -3 -2 -2 -1 -1
-4 -5 -5 -4 -4 -4 -4 -4 -4 -4 -3 -3 -3 -3 -3 -3 -3 -2 -2 -1 -1 -0
-4 -4 -4 -4 -4 -4 -4 -4 -4 -3 -3 -3 -3 -3 -3 -3 -3 -2 -2 -1 -1 -0
-3 -3 -3 -4 -4 -4 -4 -4 -4 -3 -3 -3 -3 -4 -3 -3 -3 -3 -2 -2 -1 -0
-2 -3 -3 -4 -4 -4 -4 -4 -3 -3 -3 -3 -3 -3 -3 -3 -3 -3 -2 -1 -1 -0
-1 -2 -3 -3 -3 -3 -4 -3 -3 -3 -3 -3 -3 -3 -3 -3 -3 -2 -2 -1 -0 0
-0 -1 -1 -2 -2 -3 -3 -3 -3 -3 -3 -3 -3 -3 -3 -3 -2 -2 -1 -1 -0 0
1 0 -0 -1 -1 -1 -2 -2 -2 -2 -2 -3 -3 -3 -3 -3 -2 -2 -1 -1 0 1
2 2 1 1 1 0 -0 -1 -1 -1 -2 -2 -2 -2 -2 -2 -2 -1 -1 -0 1 2
3 3 3 3 2 2 2 2 1 1 0 -0 -1 -1 -1 -1 -0 -0 0 1 3 4
5 5 5 4 4 4 3 3 3 3 3 3 2 2 1 1 1 1 2 3 5 7
7 7 7 7 6 6 5 5 5 5 5 5 5 5 5 5 5 5 5 6 8 9
8 8 8 8 8 7 7 7 6 6 6 6 6 7 8 8 8 8 8 9 10 10